Zurück zum Katalog

STARLINK-37947

AktivKommunikationSSO
NORAD 100261·PAYLOAD·🇺🇸 United States

Gestartet Aug 8, 2026 von Vandenberg Space Force Base

Loading…

Nächste Überflüge (nächste 24 Stunden)

TLE

AktuellSource: Space-Track

Epoche: Sep 14, 2026, 13:15 UTC

1 A0261U 26181R   26257.55215485  .00233598  00000-0  15195-2 0  9997
2 A0261  97.2834 300.8466 0001168  57.5723 302.5655 15.75267043  6974

Verfolge STARLINK-37947 in Echtzeit mit AllMySat

Download on the App Store